Regional Weather Roundup
Issued by NWS

Home | Current Version | Previous Version | Graphics & Text | Print | Product List | Glossary On
Versions: 1 2 3 4 5 6 7 8 9 10 11 12 13 14 15 16 17 18 19 20 21 22 23 24 25 26 27 28 29 30 31 32 33 34 35 36 37 38 39 40 41 42 43 44 45 46 47 48 49 50
000
ASUS43 KDMX 260508
RWRIA

WEATHER ROUNDUP FOR IOWA
NATIONAL WEATHER SERVICE DES MOINES IA
1200 AM CDT TUE JUL 26 2016

NOTE: "FAIR" INDICATES FEW OR NO CLOUDS BELOW 12,000 FEET WITH NO
SIGNIFICANT WEATHER AND/OR OBSTRUCTIONS TO VISIBILITY.

* - THESE STATIONS ARE NOT NWS STATIONS...THUS NOT UNDER NWS
QUALITY CONTROL.  THEY ALSO DO NOT REPORT WEATHER SUCH
AS PRECIPITATION OR FOG.

IAZ001>003-012>014-020>022-031>034-043>046-260600-
   NORTHWEST IOWA

CITY           SKY/WX    TMP DP  RH WIND       PRES   REMARKS
CARROLL *      CLEAR     66  66 100 CALM      30.10S
CHEROKEE *     CLEAR     68  67  98 CALM      30.10S
DENISON *      CLEAR     66  64  94 CALM      30.09S
LE MARS *      CLEAR     70  66  88 VRB3      30.10S
SHELDON *      CLEAR     68  66  94 SE6       30.09R
SIOUX CITY     CLEAR     71  65  81 SE6       30.08S
SPENCER        CLEAR     67  64  90 S3        30.10R
STORM LAKE *   CLEAR     68  64  88 S7        30.12S
$$

IAZ055>058-069>071-079>083-090>094-260600-
   SOUTHWEST IOWA

CITY           SKY/WX    TMP DP  RH WIND       PRES   REMARKS
ATLANTIC *     CLEAR     64  64 100 CALM      30.10S
CLARINDA *       N/A     64  64 100 MISG      30.10F
COUNCIL BLFS *   N/A     72  66  83 SE5       30.09F
CRESTON *      CLEAR     70  64  83 CALM      30.11S
HARLAN  *      CLEAR     66  64  94 CALM      30.13F
LAMONI         PTCLDY    70  64  81 CALM      30.09S
RED OAK *      PTCLDY    66  66 100 CALM      30.09F
SHENANDOAH *   CLEAR     70  70 100 NE3       30.09S
$$

IAZ047>049-059>061-072>074-084-260600-
   CENTRAL IOWA

CITY           SKY/WX    TMP DP  RH WIND       PRES   REMARKS
AMES           CLEAR     65  65 100 W3        30.09S
ANKENY *         N/A    N/A N/A N/A MISG        N/A
BOONE *        CLEAR     72  66  83 CALM      30.09S
CHARITON *       N/A    N/A N/A N/A MISG        N/A
DES MOINES     CLEAR     75  64  68 CALM      30.08S
GRINNELL*      CLEAR     66  63  91 NW3       30.09S
KNOXVILLE *    CLEAR     68  63  83 NW3       30.07R
MARSHALLTOWN   CLEAR     66  65  96 CALM      30.07S
NEWTON *       CLEAR     72  64  78 CALM      30.08S
PELLA *        CLEAR     68  63  83 CALM      30.09R
PERRY *          N/A     67  66  97 CALM      30.09S
$$

IAZ004>006-015-016-023>025-035-036-260600-
   NORTH CENTRAL IOWA

CITY           SKY/WX    TMP DP  RH WIND       PRES   REMARKS
ALGONA *       CLEAR     70  68  94 S5        30.10S
ESTHERVILLE    CLEAR     67  65  93 S7        30.10R
FORT DODGE *   CLEAR     68  66  94 CALM      30.11S
MASON CITY     CLEAR     65  64  97 CALM      30.11R
FOREST CITY *    N/A     64  64 100 CALM      30.10S
IOWA FALLS *     N/A     66  63  90 CALM      30.10S
$$

IAZ007>011-017>019-026>030-037>042-050>054-066-260600-
   NORTHEAST IOWA

CITY           SKY/WX    TMP DP  RH WIND       PRES   REMARKS
CEDAR RAPIDS   CLEAR     69  66  90 NW6       30.06R
CHARLES CITY * CLEAR     66  66 100 NW3       30.09S
CLINTON *      CLEAR     69  66  90 N6        30.06R
DECORAH *      PTCLDY    66  66 100 CALM      30.08R
DUBUQUE        CLEAR     72  62  71 N5        30.07R
MONTICELLO *   CLEAR     66  66 100 NW3       30.06S
OELWEIN *      CLEAR     68  64  88 N3        30.09R
WATERLOO       CLEAR     67  64  90 NW5       30.06S
$$

IAZ064-065-067-068-078-260600-
   EAST CENTRAL IOWA

CITY           SKY/WX    TMP DP  RH WIND       PRES   REMARKS
DAVENPORT      CLEAR     66  64  93 NW3       30.06R
IOWA CITY      CLEAR     70  66  87 CALM      30.07R
MT. PLEASANT *   N/A     70  70 100 CALM      30.06S
MUSCATINE *    CLEAR     70  66  88 CALM      30.05S
QUAD CITIES    CLEAR     70  65  84 CALM      30.04R
$$

IAZ062-063-075>077-085>089-095>099-260600-
   SOUTHEAST IOWA

CITY           SKY/WX    TMP DP  RH WIND       PRES   REMARKS
BURLINGTON     CLOUDY    68  68 100 N3        30.05R
FAIRFIELD *    CLOUDY    66  64  94 CALM      30.06S
KEOKUK *       CLOUDY    72  68  88 CALM      30.05S
CENTERVILLE *    N/A     64  64 100 CALM      30.09S
OTTUMWA        CLEAR     65  63  93 W3        30.07R
WASHINGTON *   CLOUDY    68  66  94 CALM      30.07S
$$

ABBREVIATIONS USED IN REMARKS
   TC - TEMPERATURES IN CELSIUS
  WCI - WIND CHILL INDEX
   HX - HEAT INDEX
  VSB - VISIBILITY
$$





USA.gov is the U.S. government's official web portal to all federal, state and local government web resources and services.